Air Resources Laboratory banner image
Air Resources Laboratory web site National Oceanic and Atmospheric Administration (NOAA)

il roundup


Office: LOT

ASUS43 KLOT 191104
RWRIL

ILLINOIS REGIONAL WEATHER ROUNDUP
NATIONAL WEATHER SERVICE CHICAGO/ROMEOVILLE IL
600 AM CDT FRI OCT 19 2018

NOTE: "FAIR" INDICATES FEW OR NO CLOUDS BELOW 12,000 FEET WITH NO
SIGNIFICANT WEATHER AND/OR OBSTRUCTIONS TO VISIBILITY.

* THESE STATIONS ARE NOT UNDER NWS QUALITY CONTROL. THEY ALSO MAY NOT
  REPORT WEATHER SUCH AS PRECIPITATION OR FOG.

ILZ001-002-007-009-015-016-024-191200-
NORTHWEST ILLINOIS

CITY           SKY/WX    TMP DP  RH WIND       PRES   REMARKS
MOLINE         FAIR      50  35  56 S10       30.15F
STERLING*      FAIR      44  36  73 MISG        N/A
$$

ILZ003-004-008-010-011-017-018-191200-
NORTH CENTRAL ILLINOIS

CITY           SKY/WX    TMP DP  RH WIND       PRES   REMARKS
ROCKFORD       CLOUDY    46  34  62 CALM      30.16F
FREEPORT*      FAIR      45  35  66 SW12      30.14F
ROCHELLE*      FAIR      41  35  79 S6        30.16F
$$

ILZ005-006-012>014-019>023-191200-
NORTHEAST ILLINOIS

CITY           SKY/WX    TMP DP  RH WIND       PRES   REMARKS
CHICAGO-OHARE  MOCLDY    46  31  55 SW14      30.16F
CHICAGO-MIDWAY CLOUDY    46  30  53 SW9G21    30.18F
AURORA         FAIR      44  33  65 S8        30.16F
LANSING*       FAIR      43  32  65 SW8       30.20F
WAUKEGAN       FAIR      47  33  58 SW12      30.13F
DUPAGE AIRPORT FAIR      42  33  70 S6        30.16F
WHEELING       FAIR      48  30  49 SW9       30.17F
NORTHERLY ISL    N/A     48  30  50 SW5         N/A
$$

LMZ740>746-191200-
SOUTHERN LAKE MICHIGAN

STATION/POSITION SKY/WX   TEMP    WIND        PRES    VSBY  WAVE
                          AIR SEA DIR/SP/G                  HT/PER
                          (F)     (DEG/KT/KT) (MB)    (MI)  (FT/S)
SOUTHERN BUOY              54 57  220/ 19/ 23 1020.6F         5/ 5
WINTHROP HARBOR            50 53                N/A           1/ 4
WAUKEGAN HARBOR            51 53  250/ 12       N/A           1/ 3
WILMETTE HARBOR            51 57  210/ 16/ 21   N/A           1/ 2
HARRISON CRIB              51     210/ 20/ 21   N/A
NORTHERLY ISL              47     240/  7/ 10   N/A
CALUMET HARBOR             49     210/  8/ 10 1022.0F
BURNS HARBOR               46     190/  8/ 11 1023.0F
MICHIGAN CITY              47     180/ 12/ 15   N/A
MICHIGAN CITY 6N           50 57  220/ 17/ 21   N/A           3/ 4
ST. JOSEPH                 52 57  240/ 17/ 21 1022.8F         3/ 4
$$

ILZ025>027-034>036-040-047-049-050-058-095>099-191200-
WEST-CENTRAL ILLINOIS

CITY           SKY/WX    TMP DP  RH WIND       PRES   REMARKS
QUINCY         CLOUDY    50  36  58 S9        30.20S
MACOMB*        PTCLDY    46  35  66 S7        30.22S
PITTSFIELD*    CLOUDY    49  38  65 S6        30.23S
$$

ILZ028>032-037-038-041>044-048-051>054-059>061-191200-
CENTRAL ILLINOIS

CITY           SKY/WX    TMP DP  RH WIND       PRES   REMARKS
BLOOMINGTON    FAIR      43  33  68 S9        30.22F
DECATUR        FAIR      42  32  67 S8        30.25F
PEORIA         FAIR      44  36  73 S8        30.21F
SPRINGFIELD    LGT RAIN  46  37  71 S9        30.23F
TAYLORVILLE    FAIR      42  35  75 S7        30.25F
$$

ILZ033-039-045-046-055>057-062-063-191200-
EAST-CENTRAL ILLINOIS

CITY           SKY/WX    TMP DP  RH WIND       PRES   REMARKS
CHAMPAIGN      FAIR      41  34  76 S7        30.25F
MATTOON        FAIR      42  34  73 S7        30.26F
$$

ILZ079-100>102-191200-
SOUTHWEST ILLINOIS

CITY           SKY/WX    TMP DP  RH WIND       PRES   REMARKS
BELLEVILLE     MOCLDY    40  37  92 CALM      30.24F
CAHOKIA*       PTCLDY    44  39  82 CALM      30.26F
SPARTA*        PTCLDY    42  39  91 SE3       30.27F
$$

ILZ064>066-069>071-074>076-080>082-084>086-088>090-092>094-191200-
SOUTH-CENTRAL ILLINOIS

CITY           SKY/WX    TMP DP  RH WIND       PRES   REMARKS
CARBONDALE     FAIR      37  37 100 CALM      30.28R
MT. VERNON     FAIR      34  34 100 CALM      30.28F
CENTRALIA*     MOCLDY    38  37  98 CALM      30.26F
SALEM*         FAIR      39  34  83 CALM      30.27F
$$

ILZ067-068-072-073-078-083-087-091-191200-
SOUTHEAST ILLINOIS

CITY           SKY/WX    TMP DP  RH WIND       PRES   REMARKS
LAWRENCEVILLE  FAIR      35  33  92 E3        30.29F
FLORA*         FAIR      36  35  96 CALM      30.28F
HARRISBURG*    FAIR      33  33 100 E3        30.28F
ROBINSON*      FOG       32  32 100 CALM      30.30F VSB 3/4
$$

ABBREVIATIONS USED IN REMARKS
   TC - TEMPERATURE IN CELSIUS
  WCI - WIND CHILL INDEX
   HX - HEAT INDEX
  VSB - VISIBILITY
$$



ASUS43 KLOT 191109
RWRIL

ILLINOIS REGIONAL WEATHER ROUNDUP
NATIONAL WEATHER SERVICE CHICAGO/ROMEOVILLE IL
600 AM CDT FRI OCT 19 2018

NOTE: "FAIR" INDICATES FEW OR NO CLOUDS BELOW 12,000 FEET WITH NO
SIGNIFICANT WEATHER AND/OR OBSTRUCTIONS TO VISIBILITY.

* THESE STATIONS ARE NOT UNDER NWS QUALITY CONTROL. THEY ALSO MAY NOT
  REPORT WEATHER SUCH AS PRECIPITATION OR FOG.

ILZ001-002-007-009-015-016-024-191200-
NORTHWEST ILLINOIS

CITY           SKY/WX    TMP DP  RH WIND       PRES   REMARKS
MOLINE         FAIR      50  35  56 S10       30.15F
STERLING*      FAIR      44  36  73 MISG        N/A
SAVANNA*       FAIR      43  37  81 S5        30.13F
$$

ILZ003-004-008-010-011-017-018-191200-
NORTH CENTRAL ILLINOIS

CITY           SKY/WX    TMP DP  RH WIND       PRES   REMARKS
ROCKFORD       CLOUDY    46  34  62 CALM      30.16F
FREEPORT*      FAIR      45  35  66 SW12      30.14F
ROCHELLE*      FAIR      41  35  79 S6        30.16F
DE KALB*       FAIR      40  36  84 S8        30.16F
PERU*          FAIR      45  36  70 S8        30.18F
$$

ILZ005-006-012>014-019>023-191200-
NORTHEAST ILLINOIS

CITY           SKY/WX    TMP DP  RH WIND       PRES   REMARKS
CHICAGO-OHARE  MOCLDY    46  31  55 SW14      30.16F
CHICAGO-MIDWAY CLOUDY    46  30  53 SW9G21    30.18F
AURORA         FAIR      44  33  65 S8        30.16F
LANSING*       FAIR      43  32  65 SW8       30.20F
JOLIET*        FAIR      44  35  69 S6        30.18F
WAUKEGAN       FAIR      47  33  58 SW12      30.13F
DUPAGE AIRPORT FAIR      42  33  70 S6        30.16F
KANKAKEE*      FAIR      41  32  69 S9        30.22F
WHEELING       FAIR      48  30  49 SW9       30.17F
MORRIS*        FAIR      40  34  79 S6        30.18F
ROMEOVILLE*    FAIR      42  35  75 S7        30.18F
NORTHERLY ISL    N/A     48  30  50 SW5         N/A
$$

LMZ740>746-191200-
SOUTHERN LAKE MICHIGAN

STATION/POSITION SKY/WX   TEMP    WIND        PRES    VSBY  WAVE
                          AIR SEA DIR/SP/G                  HT/PER
                          (F)     (DEG/KT/KT) (MB)    (MI)  (FT/S)
SOUTHERN BUOY              54 57  220/ 19/ 23 1020.6F         5/ 5
WINTHROP HARBOR            50 52                N/A           1/ 4
WAUKEGAN HARBOR            51 53  250/ 12       N/A           1/ 3
WILMETTE HARBOR            51 57  210/ 16/ 19   N/A           2/ 2
HARRISON CRIB              51     210/ 20/ 21   N/A
NORTHERLY ISL              47     240/  7/ 10   N/A
CALUMET HARBOR             48     200/  8/ 11 1021.8F
BURNS HARBOR               46     190/  8/ 11 1023.0F
MICHIGAN CITY              47     180/ 12/ 15   N/A
MICHIGAN CITY 6N           50 57  220/ 17/ 21   N/A           3/ 4
ST. JOSEPH                 52 57  250/ 17/ 21 1022.7          3/ 4
$$

ILZ025>027-034>036-040-047-049-050-058-095>099-191200-
WEST-CENTRAL ILLINOIS

CITY           SKY/WX    TMP DP  RH WIND       PRES   REMARKS
QUINCY         CLOUDY    50  36  58 S9        30.20S
GALESBURG*     FAIR      46  35  66 S8        30.19S
MACOMB*        PTCLDY    46  35  66 S7        30.22S
JACKSONVILLE*  PTCLDY    47  35  62 S7        30.22S
PITTSFIELD*    CLOUDY    49  38  65 S6        30.23S
$$

ILZ028>032-037-038-041>044-048-051>054-059>061-191200-
CENTRAL ILLINOIS

CITY           SKY/WX    TMP DP  RH WIND       PRES   REMARKS
PONTIAC        FAIR      44  35  69 S10       30.22F
BLOOMINGTON    FAIR      43  33  68 S9        30.22F
DECATUR        FAIR      42  32  67 S8        30.25F
PEORIA         FAIR      44  36  73 S8        30.21F
LACON*         FAIR      45  33  61 S5        30.18F
LINCOLN*       FAIR      44  37  78 S8        30.23F
SPRINGFIELD    LGT RAIN  46  37  71 S9        30.23F
TAYLORVILLE    FAIR      42  35  75 S7        30.25F
$$

ILZ033-039-045-046-055>057-062-063-191200-
EAST-CENTRAL ILLINOIS

CITY           SKY/WX    TMP DP  RH WIND       PRES   REMARKS
CHAMPAIGN      FAIR      41  34  76 S7        30.25F
DANVILLE*      FAIR      37  34  88 CALM      30.24S
RANTOUL*       FAIR      42  37  82 S3        30.24F
MATTOON        FAIR      42  34  73 S7        30.26F
PARIS*         FAIR      38  33  81 S3        30.28S
$$

ILZ079-100>102-191200-
SOUTHWEST ILLINOIS

CITY           SKY/WX    TMP DP  RH WIND       PRES   REMARKS
ALTON          PTCLDY    43  39  85 SE3       30.26S
BELLEVILLE     MOCLDY    40  37  92 CALM      30.24F
CAHOKIA*       PTCLDY    44  39  82 CALM      30.26F
SPARTA*        PTCLDY    42  39  91 SE3       30.27F
$$

ILZ064>066-069>071-074>076-080>082-084>086-088>090-092>094-191200-
SOUTH-CENTRAL ILLINOIS

CITY           SKY/WX    TMP DP  RH WIND       PRES   REMARKS
CARBONDALE     FAIR      37  37 100 CALM      30.28R
CAIRO*         FAIR      38  38 100 CALM      30.28S
EFFINGHAM*     FAIR      37  35  92 CALM      30.29S
MARION         FAIR      39  35  86 CALM      30.29S
MT. VERNON     FAIR      34  34 100 CALM      30.28F
CENTRALIA*     MOCLDY    38  37  98 CALM      30.26F
SALEM*         FAIR      39  34  83 CALM      30.27F
METROPOLIS*    FAIR      37  36  97 CALM      30.29F
$$

ILZ067-068-072-073-078-083-087-091-191200-
SOUTHEAST ILLINOIS

CITY           SKY/WX    TMP DP  RH WIND       PRES   REMARKS
LAWRENCEVILLE  FAIR      35  33  92 E3        30.29F
FLORA*         FAIR      36  35  96 CALM      30.28F
FAIRFIELD*     FAIR      35  35 100 CALM      30.27S
HARRISBURG*    FAIR      33  33 100 E3        30.28F
ROBINSON*      FOG       32  32 100 CALM      30.30F VSB 3/4
CARMI*         FAIR      32  32 100 CALM      30.28F FOG
$$

ABBREVIATIONS USED IN REMARKS
   TC - TEMPERATURE IN CELSIUS
  WCI - WIND CHILL INDEX
   HX - HEAT INDEX
  VSB - VISIBILITY
$$